Weather History for Morristown, NJ

Change the Weather History Date:

Friday, February 1, 2013

  Actual Average Record
Temperature  
Mean Temperature 26 °F -  
Max Temperature 30 °F 38 °F 60 °F (1953)
Min Temperature 21 °F 18 °F -21 °F (1935)
Degree Days  
Heating Degree Days 40    
Moisture  
Dew Point 14 °F    
Average Humidity 61    
Maximum Humidity 80    
Minimum Humidity 37    
Precipitation  
Precipitation 0.00 in - - ()
Sea Level Pressure  
Sea Level Pressure 29.95 in    
Wind  
Wind Speed 10 mph (West)    
Max Wind Speed 17 mph    
Max Gust Speed 31 mph    
Visibility 10 miles    
Events Snow    
Averages and records for this station are not official NWS values.
T = Trace of Precipitation, MM = Missing Value Source: NWS Daily Summary

Daily Weather History Graph

Daily Weather History Graph

Search for Another Location

Airport:

Trip Planner

Search our weather history database for the weather conditions in past years. The results will help you decide how hot, cold, wet, or windy it might be!

Date:

Astronomy

Feb. 01, 2013 Rise Set
Actual Time 7:07 AM EST 5:15 PM EST
Civil Twilight 6:38 AM EST 5:44 PM EST
Nautical Twilight 6:05 AM EST 6:17 PM EST
Astronomical Twilight 5:33 AM EST 6:49 PM EST
Moon 11:22 PM EST (2/1) 9:36 AM EST (2/1)
Length of Visible Light 11h 05m
Length of Day
10h 07m
Waning Gibbous, 70% of the Moon is Illuminated
Feb 1
Waning Gibbous
Feb 3
Last Quarter
Feb 10
New
Feb 17
First Quarter
Feb 25
Full

Hourly Weather History & Observations

Time (EST) Temp. Windchill Dew Point Humidity Pressure Visibility Wind Dir Wind Speed Gust Speed Precip Events Conditions
12:15 AM 28.4 °F 18.5 °F 14.0 °F 55% 29.80 in 10.0 mi WSW 11.5 mph - N/A   Clear
12:35 AM 26.6 °F 16.2 °F 14.0 °F 59% 29.80 in 10.0 mi West 11.5 mph - N/A   Clear
12:55 AM 26.6 °F 15.7 °F 14.0 °F 59% 29.81 in 10.0 mi WSW 12.7 mph - N/A   Clear
1:15 AM 28.4 °F 17.5 °F 14.0 °F 55% 29.81 in 10.0 mi WSW 13.8 mph 20.7 mph N/A   Clear
1:35 AM 28.4 °F 18.5 °F 14.0 °F 55% 29.81 in 10.0 mi WSW 11.5 mph 19.6 mph N/A   Clear
1:55 AM 28.4 °F 19.7 °F 14.0 °F 55% 29.81 in 10.0 mi WSW 9.2 mph 21.9 mph N/A   Clear
2:15 AM 26.6 °F 19.1 °F 14.0 °F 59% 29.81 in 10.0 mi WSW 6.9 mph - N/A   Clear
2:35 AM 26.6 °F 18.2 °F 15.8 °F 64% 29.81 in 10.0 mi WSW 8.1 mph - N/A   Clear
2:55 AM 24.8 °F 20.5 °F 14.0 °F 64% 29.80 in 10.0 mi SW 3.5 mph - N/A   Clear
3:15 AM 24.8 °F 20.5 °F 15.8 °F 69% 29.79 in 10.0 mi SSW 3.5 mph - N/A   Clear
3:35 AM 24.8 °F 17.9 °F 15.8 °F 69% 29.80 in 10.0 mi SSW 5.8 mph - N/A   Clear
3:55 AM 24.8 °F 17.9 °F 14.0 °F 64% 29.80 in 10.0 mi SSW 5.8 mph - N/A   Clear
4:15 AM 24.8 °F 16.1 °F 15.8 °F 69% 29.80 in 10.0 mi SW 8.1 mph - N/A   Scattered Clouds
4:35 AM 24.8 °F 16.9 °F 15.8 °F 69% 29.81 in 10.0 mi SW 6.9 mph - N/A   Scattered Clouds
4:55 AM 24.8 °F 16.9 °F 14.0 °F 64% 29.82 in 10.0 mi SW 6.9 mph - N/A   Mostly Cloudy
5:15 AM 24.8 °F 15.3 °F 15.8 °F 69% 29.81 in 10.0 mi SW 9.2 mph - N/A   Scattered Clouds
5:35 AM 26.6 °F 20.0 °F 15.8 °F 64% 29.82 in 10.0 mi SW 5.8 mph - N/A   Mostly Cloudy
6:45 AM 26.6 °F 19.1 °F 14.0 °F 59% 29.85 in 10.0 mi West 6.9 mph - N/A   Scattered Clouds
7:45 AM 26.6 °F 16.2 °F 12.2 °F 55% 29.86 in 10.0 mi NW 11.5 mph 18.4 mph N/A   Mostly Cloudy
8:45 AM 28.4 °F 19.7 °F 14.0 °F 55% 29.87 in 10.0 mi WNW 9.2 mph 16.1 mph N/A   Overcast
9:45 AM 28.4 °F 17.5 °F 10.4 °F 47% 29.89 in 10.0 mi NW 13.8 mph 23.0 mph N/A   Overcast
10:45 AM 28.4 °F 18.5 °F 10.4 °F 47% 29.90 in 10.0 mi NNW 11.5 mph 20.7 mph N/A   Overcast
11:45 AM 28.4 °F 17.5 °F 6.8 °F 40% 29.89 in 10.0 mi NNW 13.8 mph 18.4 mph N/A   Overcast
12:45 PM 30.2 °F 18.5 °F 6.8 °F 37% 29.89 in 10.0 mi North 17.3 mph 31.1 mph N/A   Mostly Cloudy
1:45 PM 30.2 °F 19.3 °F 6.8 °F 37% 29.92 in 10.0 mi NW 15.0 mph 23.0 mph N/A   Mostly Cloudy
2:45 PM 30.2 °F 19.8 °F 6.8 °F 37% 29.95 in 10.0 mi NW 13.8 mph 26.5 mph N/A   Mostly Cloudy
3:55 PM 26.6 °F 14.3 °F 15.8 °F 64% 30.01 in 0.5 mi NNW 16.1 mph 28.8 mph N/A Snow Light Snow
4:05 PM 24.8 °F 13.4 °F 17.6 °F 74% 30.01 in 10.0 mi WNW 12.7 mph 23.0 mph N/A   Mostly Cloudy
4:45 PM 26.6 °F 14.7 °F 12.2 °F 55% 30.03 in 10.0 mi WNW 15.0 mph 23.0 mph N/A   Scattered Clouds
5:15 PM 26.6 °F 14.3 °F 15.8 °F 64% 30.06 in 2.0 mi WNW 16.1 mph 26.5 mph N/A Snow Light Snow
5:45 PM 24.8 °F 12.4 °F 15.8 °F 69% 30.08 in 10.0 mi NW 15.0 mph 23.0 mph N/A   Mostly Cloudy
6:45 PM 24.8 °F 14.6 °F 17.6 °F 74% 30.13 in 10.0 mi West 10.4 mph - N/A   Scattered Clouds
7:45 PM 23.0 °F 14.7 °F 17.6 °F 80% 30.15 in 10.0 mi West 6.9 mph - N/A   Scattered Clouds
8:45 PM 23.0 °F 11.1 °F 15.8 °F 74% 30.17 in 10.0 mi West 12.7 mph 20.7 mph N/A   Scattered Clouds
9:45 PM 23.0 °F 13.9 °F 15.8 °F 74% 30.19 in 10.0 mi West 8.1 mph - N/A   Clear
9:55 PM 23.0 °F 11.7 °F 14.0 °F 68% 30.20 in 10.0 mi West 11.5 mph - N/A   Clear
10:15 PM 23.0 °F 14.7 °F 14.0 °F 68% 30.21 in 10.0 mi West 6.9 mph - N/A   Clear
10:35 PM 23.0 °F 13.9 °F 12.2 °F 63% 30.21 in 10.0 mi West 8.1 mph - N/A   Clear
10:55 PM 23.0 °F 13.1 °F 12.2 °F 63% 30.22 in 10.0 mi West 9.2 mph - N/A   Clear
11:15 PM 23.0 °F 13.9 °F 12.2 °F 63% 30.23 in 10.0 mi West 8.1 mph - N/A   Clear
11:35 PM 21.2 °F 9.5 °F 10.4 °F 63% 30.23 in 10.0 mi West 11.5 mph - N/A   Clear
11:55 PM 21.2 °F 11.7 °F 10.4 °F 63% 30.23 in 10.0 mi West 8.1 mph - N/A   Clear